TimeCST,TemperatureF,Dew PointF,Humidity,Sea Level PressureIn,VisibilityMPH,Wind Direction,Wind SpeedMPH,Gust SpeedMPH,PrecipitationIn,Events,Conditions,WindDirDegrees,DateUTC
12:54 AM,27.0,21.9,81,30.37,10.0,Calm,Calm,-,N/A,,Clear,0,2012-11-15 06:54:00
1:54 AM,25.0,21.9,88,30.37,8.0,Calm,Calm,-,N/A,,Clear,0,2012-11-15 07:54:00
2:54 AM,26.1,23.0,88,30.36,10.0,Calm,Calm,-,N/A,,Clear,0,2012-11-15 08:54:00
3:54 AM,25.0,21.0,85,30.37,10.0,Calm,Calm,-,N/A,,Clear,0,2012-11-15 09:54:00
4:54 AM,25.0,21.9,88,30.38,10.0,Calm,Calm,-,N/A,,Clear,0,2012-11-15 10:54:00
5:54 AM,26.6,23.0,86,30.35,9.0,Calm,Calm,-,N/A,,Clear,0,2012-11-15 11:54:00
6:54 AM,27.0,23.0,85,30.39,8.0,Calm,Calm,-,N/A,,Clear,0,2012-11-15 12:54:00
7:54 AM,28.9,26.1,89,30.41,8.0,Calm,Calm,-,N/A,,Mostly Cloudy,0,2012-11-15 13:54:00
8:54 AM,32.0,28.0,85,30.41,8.0,Calm,Calm,-,N/A,,Mostly Cloudy,0,2012-11-15 14:54:00
9:54 AM,39.9,32.0,73,30.42,10.0,Calm,Calm,-,N/A,,Clear,0,2012-11-15 15:54:00
10:54 AM,46.9,30.9,54,30.40,10.0,Calm,Calm,-,N/A,,Mostly Cloudy,0,2012-11-15 16:54:00
11:54 AM,51.1,28.0,41,30.38,10.0,Calm,Calm,-,N/A,,Mostly Cloudy,0,2012-11-15 17:54:00
12:54 PM,52.0,27.0,38,30.36,10.0,Calm,Calm,-,N/A,,Scattered Clouds,0,2012-11-15 18:54:00
1:54 PM,54.0,26.1,34,30.35,10.0,Calm,Calm,-,N/A,,Mostly Cloudy,0,2012-11-15 19:54:00
2:54 PM,54.0,25.0,33,30.34,10.0,Calm,Calm,-,N/A,,Mostly Cloudy,0,2012-11-15 20:54:00
3:54 PM,52.0,28.0,40,30.35,10.0,Calm,Calm,-,N/A,,Mostly Cloudy,0,2012-11-15 21:54:00
4:54 PM,46.0,32.0,58,30.35,10.0,Calm,Calm,-,N/A,,Mostly Cloudy,0,2012-11-15 22:54:00
5:54 PM,43.0,32.0,65,30.36,10.0,Calm,Calm,-,N/A,,Mostly Cloudy,0,2012-11-15 23:54:00
6:54 PM,43.0,32.0,65,30.37,10.0,Calm,Calm,-,N/A,,Partly Cloudy,0,2012-11-16 00:54:00
7:54 PM,37.9,32.0,79,30.38,10.0,Calm,Calm,-,N/A,,Clear,0,2012-11-16 01:54:00
8:54 PM,37.9,30.0,73,30.38,10.0,Calm,Calm,-,N/A,,Clear,0,2012-11-16 02:54:00
9:54 PM,36.0,30.9,82,30.39,10.0,Calm,Calm,-,N/A,,Clear,0,2012-11-16 03:54:00
10:54 PM,34.0,30.0,85,30.40,10.0,Calm,Calm,-,N/A,,Clear,0,2012-11-16 04:54:00
11:54 PM,33.1,28.0,82,30.40,10.0,Calm,Calm,-,N/A,,Clear,0,2012-11-16 05:54:00